SCOUT X-4 DEB, 3750

Orbit data source: Space-Track

SCOUT X-4 DEB, 3750 is space debris in LEO originally from a launch on Thu, 19 Dec 1963 UTC launched from the Air Force Western Test Range (AFWTR). Debris objects in space refer to the collection of defunct objects orbiting the Earth. Examples of debris include non-operational satellites, rocket bodies, and fragments generated from explosions, collisions, or faulty payload assembly.

Loading next visibility...
Identifier
3750, 1963-053J
Orbit
LEO
Country
Flag of USUS
Related business
Manufacturer
Unknown
Mission
Spacecraft
Bus & Motor
Unknown
Mass
Unknown
Launch date (UTC)
1963-12-19 (62 years ago)
Launch vehicle
Unknown
Launch site
Air Force Western Test Range (AFWTR)
Object type
Payload
Rocket body
Debris
Shape & HBR
Unknown shape, 0.1 m
Radar Cross Section
Small (<0.1 m²)

Expand to show TLE details & history
Last TLE update: 8 hours ago

TLE from 8 hours ago
0 SCOUT X-4 DEB
1 03750U 63053J   26126.95727510  .00026743  00000-0  24420-2 0  9991
2 03750  78.5620  89.3898 0157720 119.6399 242.0618 14.85853954802432
Epoch: 2026-05-06T22:58Z
TLE epoch observation values (Epoch: 2026-05-06T22:58:28.568Z)
Latitude
-0.00011°
Longitude
-120.03957°
Altitude
666.807 km
Speed
7.495 km/s
True Right ascension
05h 57m 33s
True Declination
0° 00' 00"
Sunlit
Object was in daylight at epoch
Visualization orbit readout
Latitude
Unknown
Longitude
Unknown
Altitude
Unknown
Speed
Unknown
Apparent Right ascension
Unknown
Apparent Declination
Unknown
Sunlit
N/A
Visualization observer readout
Local Sidereal Time
15:25:18
Azimuth
Unknown
Elevation
Unknown
Doppler factor
Unknown
Orbital elements
Apogee altitude
718.319 km
Perigee altitude
497.944 km
Semi-major axis
6,986.269 km
Eccentricity
0.01577
Inclination
78.562°
RAAN
89.3898°
Arg. of periapsis
119.6399°
True anomaly
240.47992°
Mean anomaly
242.0618°
Eccentric anomaly
241.26938°
Mean motion
3.71685 °/min
Orbital period
96.86 mins
BSTAR
0.002442
Loading maneuver chart data...
Computing Atmospheric mass density...
Loading historical data...
Loading historical data...
Loading historical data...
Loading historical data...
Loading historical data...
Loading historical data...
Loading historical data...

Documentation

Showing up to 5 results
|